Simultaneous Nadir Overpasses (SNOs) Predictions

Prediction of SNOs between LANDSAT-8 and NOAA-19 Satellite Orbit:

Table of predicted SNOs for the next 14.0 days since TLE Epoch: 10/15/2017
Index Date (LANDSAT-8) Time (LANDSAT-8) Lat,Lon (LANDSAT-8) SZA (LANDSAT-8 ) Date (NOAA-19) Time (NOAA-19) Lat,Lon (NOAA-19) SZA (NOAA-19 ) Distance(km) Time Diff (sec)
1 10/16/2017 17:20:46 76.72, -69.60 86.18 10/16/2017 17:20:21 76.71, -69.61 86.17 0.99 25
2 10/16/2017 18:10:15 -76.65, 97.80 93.89 10/16/2017 18:11:23 -76.67, 97.80 93.85 2.35 68
3 10/18/2017 22:54:31 -76.73, 27.02 92.99 10/18/2017 22:54:08 -76.72, 26.97 93.00 1.96 23
4 10/18/2017 23:43:58 76.66,-165.58 86.95 10/18/2017 23:45:06 76.68,-165.60 86.98 1.69 68
5 10/21/2017 04:28:14 76.74, 123.62 87.83 10/21/2017 04:27:52 76.75, 123.48 87.83 3.82 22
6 10/21/2017 05:17:43 -76.68, -68.97 92.24 10/21/2017 05:18:52 -76.67, -68.94 92.22 0.93 69
7 10/23/2017 10:01:59 -76.75,-139.77 91.37 10/23/2017 10:01:37 -76.73,-139.79 91.40 3.03 22
8 10/23/2017 10:51:26 76.68, 27.61 88.56 10/23/2017 10:52:36 76.68, 27.66 88.58 1.30 70
9 10/25/2017 15:35:42 76.75, -43.21 89.41 10/25/2017 15:35:22 76.75, -43.28 89.41 1.78 20
10 10/25/2017 16:25:11 -76.69, 124.21 90.66 10/25/2017 16:26:21 -76.68, 124.28 90.64 2.09 70
11 10/27/2017 21:09:27 -76.76, 53.38 89.83 10/27/2017 21:09:06 -76.74, 53.41 89.85 2.29 21




NCC Satellite Simultaneous Nadir Overpasses (SNOs) Prediction Service
